Regional Weather Roundup
Issued by NWS

Home | Current Version | Previous Version | Graphics & Text | Print | Product List | Glossary On
Versions: 1 2 3 4 5 6 7 8 9 10 11 12 13 14 15 16 17 18 19 20 21 22 23 24 25 26 27 28 29 30 31 32 33 34 35 36 37 38 39 40 41 42 43 44 45 46 47 48 49 50
000
ASUS45 KABQ 310101
RWRNM
WEATHER ROUNDUP FOR NEW MEXICO
NATIONAL WEATHER SERVICE ALBUQUERQUE NM
700 PM MDT WED JUL 30 2014

NOTE: "FAIR" MEANS FEW OR NO CLOUDS BELOW 12,000 FEET AGL WITH NO
       SIGNIFICANT WEATHER OR OBSTRUCTIONS TO VISION.

      THIS PRODUCT IS RELEASED AS TWO VERSIONS.  ONE VERSION NEAR
      THE TOP OF THE HOUR CONTAINING PRELIMINARY DATA FROM ALBUQUERQUE
      AND OTHER STATIONS.  A FINAL VERSION WITH ADDITIONAL DATA IS
      ISSUED ABOUT 10 MINUTES AFTER THE HOUR.

NMZ501-503-504-510>518-310200-
NORTHWEST PLATEAU/NORTHCENTRAL MOUNTAINS

CITY           SKY/WX    TMP DP  RH WIND       PRES   REMARKS
FARMINGTON     SUNNY     88  40  18 NW15      30.09F
LOS ALAMOS     MOSUNNY   76  53  45 S7        30.28R
SANTA FE       PTSUNNY   73  59  61 SE15      30.21R
TAOS           CLOUDY    66  55  68 SE17      30.29S
ANGEL FIRE     CLOUDY    59  53  81 CALM      30.43F

$$
NMZ402-403-502-505>509-310200-
WESTCENTRAL MOUNTAINS/SOUTHWEST MOUNTAINS

CITY           SKY/WX    TMP DP  RH WIND       PRES   REMARKS
GALLUP         MOSUNNY   86  43  22 W10       30.19F

$$
NMZ407-409-411-412-310200-
SOUTHERN DESERTS

CITY           SKY/WX    TMP DP  RH WIND       PRES   REMARKS
LORDSBURG      FAIR      91  48  22 SW13G21   30.03S
DEMING         PTSUNNY   94  49  21 SW15G28   30.01R
LAS CRUCES     PTSUNNY   90  48  23 W12G17    30.04S
HOLLOMAN AFB   MOSUNNY   97  46  17 S3        29.98S
T OR C         CLOUDY    89  53  29 S5        30.05S

$$
NMZ519>523-310200-
CENTRAL VALLEYS/CENTRAL HIGHLANDS

CITY           SKY/WX    TMP DP  RH WIND       PRES   REMARKS
ALBUQUERQUE    PTSUNNY   88  50  27 SE9       30.11S
DOUBLE EAGLE   PTSUNNY   86  52  30 VRB7      30.16R
CLINES CORNERS MOSUNNY   66  57  72 E18G26    30.30R
BELEN          FAIR      87  50  28 E6        30.11S
SOCORRO        FAIR      91  48  22 E5        30.06F

$$
NMZ524>526-539-540-310200-
SOUTHCENTRAL MOUNTAINS

CITY           SKY/WX    TMP DP  RH WIND       PRES   REMARKS
RUIDOSO        NOT AVBL

$$
NMZ527>531-310200-
NORTHEAST HIGHLANDS/NORTHEAST PLAINS

CITY           SKY/WX    TMP DP  RH WIND       PRES   REMARKS
LAS VEGAS      CLOUDY    61  58  90 NE15      30.35R
RATON          CLOUDY    63  54  72 NE12      30.32R
CLAYTON        CLOUDY    63  56  78 NE14      30.28R

$$
NMZ532>537-310200-
EASTCENTRAL PLAINS

CITY           SKY/WX    TMP DP  RH WIND       PRES   REMARKS
TUCUMCARI      CLOUDY    73  57  57 NE22      30.19R
CANNON AFB     PTSUNNY   73  59  61 NE20G30   30.16R
CLOVIS AIRPORT MOCLDY    73  59  60 NE23G29   30.19

$$
NMZ028-029-538-310200-
SOUTHEAST PLAINS

CITY           SKY/WX    TMP DP  RH WIND       PRES   REMARKS
ROSWELL        CLOUDY    86  65  49 NE9       30.02F
ARTESIA        CLOUDY    90  61  37 NE14      30.00S
CARLSBAD       CLOUDY    91  56  30 NW13      29.96S
HOBBS          CLOUDY    88  63  42 NE22G30   30.03R


$$


USA.gov is the U.S. government's official web portal to all federal, state and local government web resources and services.